Northeast Philadelphia, PA

4:32 PM EDT on May 24, 2018 (GMT -0400)
Northeast Philadelphia

Weather History for KPNE - February, 2012

Change the Weather History Date:

Thursday, February 2, 2012

  Actual Average Record
Temperature  
Mean Temperature 42 °F -  
Max Temperature 46 °F 39 °F 57 °F (2009)
Min Temperature 37 °F 24 °F 17 °F (2013)
Degree Days  
Heating Degree Days 22    
Moisture  
Dew Point 30 °F    
Average Humidity 61    
Maximum Humidity 76    
Minimum Humidity 49    
Precipitation  
Precipitation 0.00 in - - ()
Sea Level Pressure  
Sea Level Pressure 30.10 in    
Wind  
Wind Speed 7 mph (North)    
Max Wind Speed 17 mph    
Max Gust Speed 24 mph    
Visibility 10 miles    
Events      
Averages and records for this station are not official NWS values.
T = Trace of Precipitation, MM = Missing Value Source: NWS Daily Summary

Daily Weather History Graph

Daily Weather History Graph

Search for Another Location

Airport or City:

Astronomy

Feb. 02, 2012 Rise Set
Actual Time 7:08 AM EST 5:19 PM EST
Civil Twilight 6:39 AM EST 5:48 PM EST
Nautical Twilight 6:07 AM EST 6:20 PM EST
Astronomical Twilight 5:35 AM EST 6:52 PM EST
Moon 12:29 PM EST (2/2) 2:48 AM EST (2/2)
Length of Visible Light 11h 08m
Length of Day
10h 11m
Waxing Gibbous, 73% of the Moon is Illuminated
Feb 2
Waxing Gibbous
Feb 7
Full
Feb 14
Last Quarter
Feb 21
New
Feb 29
First Quarter

Hourly Weather History & Observations

Time (EST) Temp. Windchill Dew Point Humidity Pressure Visibility Wind Dir Wind Speed Gust Speed Precip Events Conditions
12:54 AM 44.1 °F - 37.0 °F 76% 30.01 in 10.0 mi Calm Calm - N/A   Clear
1:54 AM 46.0 °F 42.5 °F 37.0 °F 71% 30.02 in 10.0 mi North 6.9 mph - N/A   Clear
2:54 AM 45.0 °F 40.6 °F 36.0 °F 71% 30.01 in 10.0 mi NNE 8.1 mph - N/A   Clear
3:54 AM 44.1 °F 40.1 °F 34.0 °F 68% 30.02 in 10.0 mi NE 6.9 mph - N/A   Clear
4:54 AM 42.1 °F 39.2 °F 34.0 °F 73% 30.03 in 10.0 mi NE 4.6 mph - N/A   Clear
5:54 AM 41.0 °F 38.0 °F 34.0 °F 76% 30.04 in 10.0 mi ENE 4.6 mph - N/A   Clear
6:54 AM 41.0 °F - 32.0 °F 70% 30.06 in 10.0 mi Calm Calm - N/A   Clear
7:54 AM 41.0 °F 35.8 °F 32.0 °F 70% 30.06 in 10.0 mi North 8.1 mph - N/A   Mostly Cloudy
8:54 AM 43.0 °F 37.7 °F 30.9 °F 62% 30.06 in 10.0 mi NNE 9.2 mph - N/A   Clear
9:54 AM 44.1 °F 39.0 °F 30.9 °F 60% 30.06 in 10.0 mi NNE 9.2 mph - N/A   Clear
10:54 AM 46.0 °F 41.0 °F 30.9 °F 56% 30.07 in 10.0 mi North 10.4 mph - N/A   Clear
11:54 AM 45.0 °F 40.6 °F 30.9 °F 58% 30.06 in 10.0 mi North 8.1 mph - N/A   Mostly Cloudy
12:54 PM 45.0 °F 40.6 °F 30.9 °F 58% 30.04 in 10.0 mi North 8.1 mph - N/A   Mostly Cloudy
1:54 PM 46.0 °F 41.0 °F 30.9 °F 56% 30.04 in 10.0 mi North 10.4 mph - N/A   Scattered Clouds
2:54 PM 46.0 °F 41.4 °F 30.0 °F 54% 30.05 in 10.0 mi NW 9.2 mph - N/A   Mostly Cloudy
3:54 PM 45.0 °F 38.9 °F 30.0 °F 56% 30.09 in 10.0 mi NW 12.7 mph - N/A   Overcast
4:54 PM 44.1 °F 37.7 °F 28.9 °F 55% 30.11 in 10.0 mi NNW 12.7 mph 21.9 mph N/A   Overcast
5:54 PM 43.0 °F 35.1 °F 27.0 °F 53% 30.14 in 10.0 mi NNW 17.3 mph 24.2 mph N/A   Overcast
6:54 PM 41.0 °F 33.1 °F 28.0 °F 60% 30.19 in 10.0 mi North 15.0 mph - N/A   Overcast
7:54 PM 39.9 °F 31.1 °F 25.0 °F 55% 30.22 in 10.0 mi NNW 17.3 mph 23.0 mph N/A   Overcast
8:54 PM 39.9 °F 33.9 °F 23.0 °F 51% 30.23 in 10.0 mi NNW 9.2 mph - N/A   Overcast
9:54 PM 39.0 °F 30.3 °F 21.9 °F 50% 30.26 in 10.0 mi NNW 16.1 mph 23.0 mph N/A   Overcast
10:54 PM 39.0 °F 30.6 °F 21.0 °F 49% 30.28 in 10.0 mi NNW 15.0 mph 24.2 mph N/A   Overcast
11:54 PM 37.0 °F 28.1 °F 21.0 °F 52% 30.30 in 10.0 mi NNW 15.0 mph - N/A   Partly Cloudy